Location: Unspecified
(0.0000°N, 0.0000°E)
Time: 09:06:16
(UTC+00:00)

NIMBUS 2 DEB - Pass Details

Date: 26 December 2025
Orbit: 956 x 1029 km, 100.4° (Epoch: 13 January)

Event Time Altitude Azimuth Distance (km) Brightness Sun altitude
Rises 03:00:45 0° 164° (SSE) 3,665 ? -40.4°
Reaches altitude 10° 03:03:11 10° 163° (SSE) 2,725 ? -39.9°
Enters shadow 03:05:57 29° 161° (SSE) 1,718 ? -39.3°
